STARLINK-34011, 63845

Orbit data source: Space-Track

STARLINK-34011, 63845 is a payload satellite owned by SpaceX/Seattle (US) in LEO that was launched on Wed, 07 May 2025 UTC via an FALCON 9 launch vehicle from the Air Force Eastern Test Range (AFETR). Payload-class satellites include a variety of spacecraft equipped with specific instruments for various scientific and technological missions. These include communications satellites like Starlink; space stations such as the ISS; scientific satellites like the Hubble; Earth observation satellites from companies like Planet Labs, Umbra, and HawkEye 360; GPS; miniature CubeSats for education and research; and military/defense satellites.

Loading next visibility...
Identifier
63845, 2025-093K
Orbit
LEO
Country
Flag of USUS
Related business
Manufacturer
SpaceX/Seattle
Mission
Operational Commercial Communications
Bus & Motor
STARLINK V2MO, Unknown motor
Mass
575 kg wet, ~530 kg dry
Launch date (UTC)
2025-05-07 (7 months ago)
Launch vehicle
FALCON 9
Launch site
Air Force Eastern Test Range (AFETR)
Object type
Payload
Rocket body
Debris
Shape & HBR
Box + 2 Pan, 17.7 m
Radar Cross Section
36.964 m², Large (>1 m²)

Expand to show TLE details & history
Last TLE update: 7 hours ago

TLE from 7 hours ago
0 STARLINK-34011
1 63845U 25093K   25349.90400169  .00016497  00000-0  60745-3 0  9999
2 63845  42.9989 191.4809 0001573 264.2142  95.8531 15.27592326 34930
Epoch: 2025-12-15T21:41Z
TLE epoch observation values (Epoch: 2025-12-15T21:41:45.746Z)
Latitude
0.00005°
Longitude
141.24446°
Altitude
482.898 km
Speed
7.626 km/s
True Right ascension
12h 45m 55s
True Declination
0° 00' 00"
Sunlit
Object was in daylight at epoch
Visualization orbit readout
Latitude
Unknown
Longitude
Unknown
Altitude
Unknown
Speed
Unknown
Apparent Right ascension
Unknown
Apparent Declination
Unknown
Sunlit
N/A
Visualization observer readout
Local Sidereal Time
03:10:35
Azimuth
Unknown
Elevation
Unknown
Doppler factor
Unknown
Orbital elements
Apogee altitude
486.037 km
Perigee altitude
483.878 km
Semi-major axis
6,863.095 km
Eccentricity
0.00016
Inclination
42.9989°
RAAN
191.4809°
Arg. of periapsis
264.2142°
True anomaly
95.87103°
Mean anomaly
95.8531°
Eccentric anomaly
95.86207°
Mean motion
3.81736 °/min
Orbital period
94.31 mins
BSTAR
0.00060745
Loading maneuver chart data...
Computing Atmospheric mass density...
Loading historical data...
Loading historical data...
Loading historical data...
Loading historical data...
Loading historical data...
Loading historical data...
Loading historical data...

Documentation

Showing up to 5 results
|